Weather observations for the past three days for
Carlsbad, McClellan-Palomar Airport
Imperial (Metric)
Date Time (pdt) Wind (mph) Vis. (mi.) Weather Sky Cond. Temperature (ºF) Relative Humidity Wind Chill (°F) Heat Index (°F) Pressure Precipitation (in)
Air Dwpt 6 hour altimeter (in) sea level (mb) 1 hr 3 hr 6 hr
Max. Min.
13 23:53 Calm 10.00 Fair CLR 66 61 84% 29.99 1015.3
13 22:53 Calm 10.00 Fair CLR 66.9 61 71.1 66 81% 29.99 1015.1
13 21:53 W 3 10.00 Fair CLR 66 61 84% 29.98 1014.9
13 20:53 Calm 10.00 Fair CLR 66.9 61 81% 29.97 1014.5
13 19:53 W 5 10.00 Fair CLR 66.9 61 81% 29.96 1014.2
13 18:53 W 6 10.00 Fair CLR 69.1 61 76% 29.95 1013.8
13 17:53 W 7 10.00 Fair CLR 70 61 73% 29.95 1013.8
13 16:53 SW 7 10.00 A Few Clouds FEW014 70 61 73 69.1 73% 29.95 1013.9
13 15:53 SW 9 10.00 A Few Clouds FEW014 69.1 61 76% 29.96 1014.2
13 14:53 SW 9 10.00 Mostly Cloudy BKN013 70 62.1 76% 29.97 1014.5
13 13:53 W 10 10.00 A Few Clouds FEW014 71.1 62.1 73% 29.96 1014.4
13 12:53 W 8 10.00 Fair CLR 71.1 62.1 73% 29.96 1014.2
13 11:53 SW 6 10.00 Fair CLR 72 62.1 71% 29.96 1014.3
13 10:53 Calm 10.00 Mostly Cloudy BKN011 70 62.1 70 64.9 76% 29.97 1014.5
13 09:53 SW 6 10.00 Overcast OVC009 68 62.1 81% 29.98 1014.8
13 08:53 S 7 10.00 Overcast OVC009 66.9 62.1 84% 29.97 1014.5
13 07:53 Calm 10.00 Overcast OVC007 66 62.1 87% 29.94 1013.6
13 06:53 Calm 9.00 Overcast OVC006 64.9 62.1 90% 29.94 1013.4
13 05:53 Calm 10.00 Overcast OVC008 66 62.1 87% 29.92 1012.9
13 04:53 Calm 10.00 Overcast OVC008 66 62.1 66.9 64.9 87% 29.92 1012.7
13 03:53 Calm 10.00 Overcast OVC008 66 62.1 87% 29.89 1011.8
13 02:53 Calm 10.00 Overcast OVC008 66 62.1 87% 29.88 1011.4
13 01:53 SW 5 10.00 Overcast OVC008 66 62.1 87% 29.88 1011.4
13 00:53 Calm 10.00 Overcast OVC007 66 62.1 87% 29.88 1011.6
12 23:53 Calm 10.00 Overcast OVC008 66 62.1 87% 29.88 1011.6
12 22:53 Calm 10.00 Overcast OVC008 66 62.1 70 66 87% 29.88 1011.7
12 21:53 W 3 10.00 Mostly Cloudy BKN008 66 61 84% 29.88 1011.5
12 20:53 W 5 10.00 Fair CLR 66 62.1 87% 29.86 1011.0
12 19:53 W 6 10.00 Fair CLR 66.9 61 81% 29.85 1010.6
12 18:53 Calm 10.00 Fair CLR 68 61 78% 29.85 1010.5
12 17:53 SW 6 10.00 A Few Clouds FEW011 68 61 78% 29.85 1010.5
12 16:53 SW 7 10.00 A Few Clouds FEW010 69.1 62.1 73 66.9 78% 29.85 1010.5
12 15:53 SW 9 10.00 A Few Clouds FEW011 70 62.1 76% 29.86 1010.9
12 14:53 SW 8 10.00 Fair CLR 70 62.1 76% 29.87 1011.3
12 13:53 SW 7 10.00 Fair CLR 73 63 71% 29.86 1011.0
12 12:53 SW 8 10.00 Fair CLR 71.1 63 76% 29.87 1011.2
12 11:53 SW 6 9.00 Mostly Cloudy BKN009 69.1 63 81% 29.88 1011.7
12 10:53 SW 5 7.00 Overcast OVC008 66.9 62.1 66.9 64.9 84% 29.9 1012.3
12 09:53 W 7 6.00 Overcast with Haze OVC007 66.9 62.1 84% 29.9 1012.2
12 08:53 SW 3 6.00 Overcast with Haze OVC007 66.9 62.1 84% 29.91 1012.5
12 07:53 SW 3 5.00 Fog/Mist OVC006 66 62.1 87% 29.9 1012.4
12 06:53 Vrbl 3 5.00 Fog/Mist OVC005 64.9 62.1 90% 29.9 1012.3
12 05:53 Calm 6.00 Fog/Mist OVC005 64.9 62.1 90% 29.88 1011.4
12 04:53 S 3 5.00 Fog/Mist OVC004 64.9 63 66 64.9 93% 29.88 1011.6
12 03:53 Calm 5.00 Fog/Mist OVC004 64.9 63 93% 29.87 1011.3
12 02:53 SW 5 5.00 Fog/Mist OVC004 64.9 62.1 90% 29.87 1011.1
12 01:53 Calm 5.00 Fog/Mist OVC003 64.9 63 93% 29.87 1011.2
12 00:53 SW 5 7.00 Overcast OVC004 64.9 63 93% 29.86 1011.0
11 23:53 S 6 8.00 Overcast OVC006 66 63 90% 29.87 1011.1
11 22:53 W 3 8.00 Overcast OVC006 66 63 70 66 90% 29.87 1011.3
11 21:53 SW 5 10.00 Overcast OVC007 66.9 63 87% 29.87 1011.1
11 20:53 SW 3 10.00 Overcast OVC007 66.9 63 87% 29.86 1010.8
11 19:53 SW 5 10.00 Overcast OVC007 66.9 63 87% 29.85 1010.7
11 18:53 SW 6 10.00 Overcast OVC006 68 63 84% 29.84 1010.3
11 17:53 SW 7 10.00 Overcast OVC007 69.1 63 81% 29.84 1010.2
11 16:53 SW 7 10.00 Mostly Cloudy BKN007 70 64 77 68 82% 29.84 1010.1
11 15:53 W 10 10.00 Fair CLR 72 64 76% 29.84 1010.3
11 14:53 SW 9 10.00 Fair CLR 73.9 64 71% 29.85 1010.6
11 13:53 W 7 10.00 Fair CLR 75 64 69% 77 29.87 1011.1
11 12:53 Vrbl 6 10.00 Fair CLR 72 64 76% 29.89 1011.8
11 11:53 Calm 9.00 Partly Cloudy SCT009 69.1 64 84% 29.91 1012.5
11 10:53 SW 8 7.00 Mostly Cloudy BKN006 68 63 71.1 64 84% 29.92 1012.7
11 09:53 Vrbl 3 6.00 Overcast with Haze OVC007 68 63 84% 29.92 1012.8
11 08:53 Vrbl 3 5.00 Fog/Mist OVC004 66.9 63 87% 29.91 1012.5
11 07:53 S 6 2.50 Fog/Mist OVC002 64.9 63 93% 29.91 1012.6
11 06:53 Calm 1.00 Fog/Mist OVC002 64 64 100% 29.89 1011.8
11 05:53 Calm 0.75 Fog/Mist VV002 64 63 96% 29.86 1011.0
11 04:53 S 5 4.00 Fog/Mist OVC002 64.9 63 66 64.9 93% 29.84 1010.2
11 03:53 NE 3 3.00 Fog/Mist OVC002 64.9 63 93% 29.83 1009.8
11 02:53 Calm 3.00 Fog/Mist OVC002 64.9 63 93% 29.83 1009.7
11 01:53 Calm 3.00 Fog/Mist OVC003 64.9 63 93% 29.84 1010.2
Date Time (pdt) Wind (mph) Vis. (mi.) Weather Sky Cond. Air Dwpt Max. Min. Relative Humidity Wind Chill (°F) Heat Index (°F) altimeter (in) sea level (mb) 1 hr 3 hr 6 hr
6 hour
Temperature (ºF) Pressure Precipitation (in)